Location: ????????
(54.6123°N, 39.2099°E)
Time: 13:30:44
(UTC+00:00)

Cosmos 2333 Rocket - Pass Details

Date: 19 May 2025
Orbit: 840 x 862 km, 70.8° (Epoch: 19 June)

Event Time Altitude Azimuth Distance (km) Brightness Sun altitude
Rises 20:21:16 0° 326° (NW) 3,445 6.8 -14.4°
Reaches altitude 10° 20:23:45 10° 328° (NNW) 2,502 5.9 -14.5°
Maximum altitude 20:29:31 77° 54° (NE) 883 2.3 -14.7°
Enters shadow 20:33:54 18° 139° (SE) 1,988 3.6 -14.8°
